| time (UTC) | temp F | wind direction | speed MPH | gust MPH | rain 1hr in | rain 24hr in | rain mn in | humidity % | barometer mb |
| 20260901072031 | 57 | 115 | 1.0 | 5.0 | 0.03 | 0.03 | 0.03 | 86 | 1011.8 |
| 20260901071558 | 57 | 23 | 1.0 | 5.0 | 0.03 | 0.03 | 0.03 | 86 | 1011.9 |
| 20260901071033 | 57 | 254 | 0.0 | 3.0 | 0.02 | 0.02 | 0.02 | 86 | 1012.0 |
| 20260901070533 | 57 | 214 | 1.0 | 3.0 | 0.01 | 0.01 | 0.01 | 85 | 1012.0 |
| 20260901070046 | 57 | 284 | 1.0 | 3.0 | 0.01 | 0.01 | 0.01 | 85 | 1012.1 |
| 20260901065531 | 57 | 113 | 1.0 | 3.0 | 0.01 | 0.02 | 0.01 | 85 | 1012.1 |
| 20260901065034 | 57 | 269 | 0.0 | 3.0 | 0.00 | 0.01 | 0.00 | 85 | 1012.0 |
| 20260901064554 | 57 | 203 | 1.0 | 4.0 | 0.00 | 0.01 | 0.00 | 85 | 1012.1 |
| 20260901064031 | 57 | 297 | 1.0 | 4.0 | 0.00 | 0.01 | 0.00 | 85 | 1011.9 |
| 20260901063534 | 57 | 252 | 1.0 | 4.0 | 0.00 | 0.00 | 0.00 | 84 | 1011.8 |
| 20260901063046 | 57 | 341 | 1.0 | 4.0 | 0.00 | 0.00 | 0.00 | 84 | 1011.8 |
| 20260901062531 | 57 | 127 | 0.0 | 2.0 | 0.00 | 0.00 | 0.00 | 84 | 1011.9 |
| 20260901062035 | 57 | 65 | 0.0 | 3.0 | 0.00 | 0.00 | 0.00 | 84 | 1011.9 |
| 20260901061548 | 57 | 342 | 0.0 | 3.0 | 0.00 | 0.00 | 0.00 | 84 | 1011.8 |
| 20260901061031 | 57 | 276 | 0.0 | 2.0 | 0.00 | 0.00 | 0.00 | 84 | 1012.0 |
| 20260901060535 | 57 | 328 | 0.0 | 2.0 | 0.00 | 0.00 | 0.00 | 84 | 1012.0 |
| 20260901060052 | 57 | 0 | 0.0 | 2.0 | 0.00 | 0.00 | 0.00 | 84 | 1012.1 |
| 20260901055531 | 57 | 349 | 0.0 | 2.0 | 0.00 | 0.00 | 0.00 | 84 | 1012.1 |
| 20260901055031 | 57 | 39 | 0.0 | 2.0 | 0.00 | 0.00 | 0.00 | 84 | 1011.9 |
| 20260901054547 | 57 | 266 | 0.0 | 2.0 | 0.00 | 0.00 | 0.00 | 84 | 1012.0 |
| 20260901054031 | 57 | 346 | 0.0 | 2.0 | 0.00 | 0.00 | 0.00 | 84 | 1012.1 |
| 20260901053533 | 57 | 0 | 0.0 | 2.0 | 0.00 | 0.00 | 0.00 | 84 | 1012.1 |
| 20260901053046 | 57 | 106 | 0.0 | 3.0 | 0.00 | 0.00 | 0.00 | 84 | 1012.3 |
| 20260901052533 | 57 | 218 | 0.0 | 3.0 | 0.00 | 0.00 | 0.00 | 84 | 1012.3 |
| 20260901052031 | 57 | 291 | 0.0 | 3.0 | 0.00 | 0.00 | 0.00 | 84 | 1012.3 |
| 20260901051553 | 57 | 48 | 1.0 | 3.0 | 0.00 | 0.00 | 0.00 | 84 | 1012.5 |
| 20260901051031 | 57 | 0 | 0.0 | 2.0 | 0.00 | 0.00 | 0.00 | 84 | 1012.8 |
| 20260901050530 | 57 | 0 | 0.0 | 3.0 | 0.00 | 0.00 | 0.00 | 84 | 1012.7 |
| 20260901050048 | 57 | 344 | 0.0 | 3.0 | 0.00 | 0.00 | 0.00 | 84 | 1012.8 |
| 20260901045531 | 57 | 274 | 0.0 | 3.0 | 0.00 | 0.00 | 0.00 | 84 | 1012.7 |
| 20260901045031 | 57 | 250 | 0.0 | 3.0 | 0.00 | 0.00 | 0.00 | 84 | 1012.5 |
| 20260901044621 | 57 | 272 | 0.0 | 2.0 | 0.00 | 0.00 | 0.00 | 84 | 1012.7 |
| 20260901044031 | 57 | 293 | 0.0 | 3.0 | 0.00 | 0.00 | 0.00 | 84 | 1012.6 |
| 20260901043532 | 57 | 295 | 0.0 | 3.0 | 0.00 | 0.00 | 0.00 | 83 | 1012.4 |
| 20260901043046 | 57 | 288 | 0.0 | 3.0 | 0.00 | 0.00 | 0.00 | 83 | 1012.5 |
| 20260901042532 | 57 | 101 | 1.0 | 3.0 | 0.00 | 0.00 | 0.00 | 83 | 1012.6 |
| 20260901042033 | 57 | 271 | 0.0 | 3.0 | 0.00 | 0.00 | 0.00 | 83 | 1012.6 |
| 20260901041605 | 57 | 290 | 1.0 | 3.0 | 0.00 | 0.00 | 0.00 | 83 | 1012.6 |
| 20260901041032 | 57 | 232 | 1.0 | 3.0 | 0.00 | 0.00 | 0.00 | 83 | 1012.5 |
| 20260901040532 | 57 | 0 | 1.0 | 4.0 | 0.00 | 0.00 | 0.00 | 83 | 1012.6 |
| 20260901040059 | 57 | 51 | 0.0 | 4.0 | 0.00 | 0.00 | 0.00 | 84 | 1012.6 |
| 20260901035533 | 57 | 276 | 0.0 | 3.0 | 0.00 | 0.00 | 0.00 | 84 | 1012.7 |
| 20260901035031 | 57 | 226 | 0.0 | 2.0 | 0.00 | 0.00 | 0.00 | 84 | 1012.9 |
| 20260901034547 | 57 | 51 | 0.0 | 4.0 | 0.00 | 0.00 | 0.00 | 84 | 1012.8 |
| 20260901034034 | 57 | 340 | 0.0 | 4.0 | 0.00 | 0.00 | 0.00 | 84 | 1012.7 |
| 20260901033530 | 57 | 300 | 0.0 | 2.0 | 0.00 | 0.00 | 0.00 | 84 | 1012.8 |
| 20260901033044 | 57 | 273 | 0.0 | 2.0 | 0.00 | 0.00 | 0.00 | 84 | 1012.7 |
| 20260901032531 | 57 | 294 | 1.0 | 2.0 | 0.00 | 0.00 | 0.00 | 84 | 1012.8 |
| 20260901032035 | 57 | 300 | 0.0 | 2.0 | 0.00 | 0.00 | 0.00 | 84 | 1013.1 |
| 20260901031544 | 57 | 261 | 0.0 | 3.0 | 0.00 | 0.00 | 0.00 | 84 | 1012.9 |
| 20260901031036 | 57 | 108 | 0.0 | 3.0 | 0.00 | 0.00 | 0.00 | 84 | 1013.1 |
| 20260901030536 | 57 | 267 | 0.0 | 3.0 | 0.00 | 0.00 | 0.00 | 84 | 1013.1 |
| 20260901030050 | 57 | 276 | 0.0 | 3.0 | 0.00 | 0.00 | 0.00 | 84 | 1013.0 |
| 20260901025530 | 57 | 59 | 1.0 | 3.0 | 0.00 | 0.00 | 0.00 | 84 | 1013.1 |
| 20260901025034 | 56 | 262 | 0.0 | 2.0 | 0.00 | 0.00 | 0.00 | 84 | 1013.1 |
| 20260901024550 | 56 | 271 | 0.0 | 3.0 | 0.00 | 0.00 | 0.00 | 84 | 1013.0 |
| 20260901024032 | 56 | 284 | 0.0 | 3.0 | 0.00 | 0.00 | 0.00 | 84 | 1013.1 |
| 20260901023531 | 56 | 300 | 1.0 | 4.0 | 0.00 | 0.00 | 0.00 | 84 | 1013.0 |
| 20260901023046 | 56 | 255 | 0.0 | 4.0 | 0.00 | 0.00 | 0.00 | 84 | 1013.1 |
| 20260901022531 | 56 | 262 | 0.0 | 2.0 | 0.00 | 0.00 | 0.00 | 83 | 1013.2 |
| 20260901022031 | 56 | 223 | 0.0 | 3.0 | 0.00 | 0.00 | 0.00 | 83 | 1013.3 |
| 20260901021550 | 56 | 224 | 0.0 | 3.0 | 0.00 | 0.00 | 0.00 | 83 | 1013.2 |
| 20260901021030 | 56 | 342 | 0.0 | 2.0 | 0.00 | 0.00 | 0.00 | 83 | 1013.4 |
| 20260901020532 | 56 | 0 | 0.0 | 2.0 | 0.00 | 0.00 | 0.00 | 83 | 1013.4 |
| 20260901020045 | 56 | 79 | 0.0 | 2.0 | 0.00 | 0.00 | 0.00 | 83 | 1013.4 |
| 20260901015533 | 56 | 154 | 0.0 | 1.0 | 0.00 | 0.00 | 0.00 | 83 | 1013.5 |
| 20260901015028 | 56 | 1 | 0.0 | 2.0 | 0.00 | 0.00 | 0.00 | 83 | 1013.4 |
| 20260901014545 | 56 | 12 | 0.0 | 2.0 | 0.00 | 0.00 | 0.00 | 83 | 1013.4 |
| 20260901014028 | 56 | 266 | 0.0 | 2.0 | 0.00 | 0.00 | 0.00 | 83 | 1013.4 |
| 20260901013532 | 56 | 250 | 0.0 | 1.0 | 0.00 | 0.00 | 0.00 | 83 | 1013.3 |
| 20260901013052 | 57 | 104 | 0.0 | 3.0 | 0.00 | 0.00 | 0.00 | 83 | 1013.3 |
| 20260901012530 | 56 | 0 | 0.0 | 3.0 | 0.00 | 0.00 | 0.00 | 83 | 1013.4 |
| 20260901012031 | 56 | 298 | 0.0 | 2.0 | 0.00 | 0.00 | 0.00 | 83 | 1013.6 |
| 20260901011545 | 56 | 312 | 0.0 | 2.0 | 0.00 | 0.00 | 0.00 | 83 | 1013.5 |
| 20260901011031 | 56 | 328 | 0.0 | 2.0 | 0.00 | 0.00 | 0.00 | 83 | 1013.6 |
| 20260901010532 | 56 | 220 | 0.0 | 1.0 | 0.00 | 0.00 | 0.00 | 83 | 1013.5 |
| 20260901010050 | 56 | 270 | 0.0 | 2.0 | 0.00 | 0.00 | 0.00 | 83 | 1013.5 |
| 20260901005531 | 56 | 121 | 0.0 | 2.0 | 0.00 | 0.00 | 0.00 | 83 | 1013.6 |
| 20260901005030 | 56 | 0 | 0.0 | 2.0 | 0.00 | 0.00 | 0.00 | 83 | 1013.7 |
| 20260901004555 | 56 | 0 | 0.0 | 1.0 | 0.00 | 0.00 | 0.00 | 83 | 1013.6 |
| 20260901004031 | 56 | 265 | 0.0 | 1.0 | 0.00 | 0.00 | 0.00 | 83 | 1013.7 |
| 20260901003534 | 56 | 93 | 0.0 | 1.0 | 0.00 | 0.00 | 0.00 | 83 | 1013.7 |
| 20260901003048 | 56 | 304 | 0.0 | 1.0 | 0.00 | 0.00 | 0.00 | 83 | 1013.7 |
| 20260901002531 | 55 | 0 | 0.0 | 1.0 | 0.00 | 0.00 | 0.00 | 83 | 1013.8 |
| 20260901002031 | 55 | 88 | 0.0 | 1.0 | 0.00 | 0.00 | 0.00 | 83 | 1013.8 |
| 20260901001544 | 55 | 309 | 0.0 | 1.0 | 0.00 | 0.00 | 0.00 | 82 | 1013.8 |
| 20260901001031 | 55 | 0 | 0.0 | 1.0 | 0.00 | 0.00 | 0.00 | 82 | 1013.8 |
| 20260901000531 | 55 | 280 | 0.0 | 1.0 | 0.00 | 0.00 | 0.00 | 82 | 1013.9 |
| 20260901000059 | 55 | 0 | 0.0 | 1.0 | 0.00 | 0.00 | 0.00 | 82 | 1014.0 |
| 20260831235534 | 55 | 0 | 0.0 | 1.0 | 0.00 | 0.00 | 0.00 | 82 | 1014.1 |
| 20260831235031 | 55 | 263 | 0.0 | 1.0 | 0.00 | 0.00 | 0.00 | 82 | 1014.0 |
| 20260831234550 | 55 | 257 | 0.0 | 1.0 | 0.00 | 0.00 | 0.00 | 82 | 1014.1 |
| 20260831234030 | 55 | 0 | 0.0 | 1.0 | 0.00 | 0.00 | 0.00 | 82 | 1014.2 |
| 20260831233530 | 55 | 82 | 0.0 | 1.0 | 0.00 | 0.00 | 0.00 | 82 | 1014.1 |
| 20260831233047 | 55 | 0 | 0.0 | 1.0 | 0.00 | 0.00 | 0.00 | 82 | 1014.2 |
| 20260831232532 | 55 | 0 | 0.0 | 1.0 | 0.00 | 0.00 | 0.00 | 82 | 1014.3 |
| 20260831232032 | 55 | 280 | 0.0 | 2.0 | 0.00 | 0.00 | 0.00 | 82 | 1014.4 |
| 20260831231548 | 55 | 0 | 0.0 | 2.0 | 0.00 | 0.00 | 0.00 | 81 | 1014.5 |
| 20260831231030 | 55 | 347 | 0.0 | 1.0 | 0.00 | 0.00 | 0.00 | 81 | 1014.5 |
| 20260831230530 | 55 | 0 | 0.0 | 1.0 | 0.00 | 0.00 | 0.00 | 81 | 1014.5 |
| 20260831230050 | 55 | 312 | 0.0 | 0.0 | 0.00 | 0.00 | 0.00 | 81 | 1014.5 |
| 20260831225528 | 55 | 0 | 0.0 | 2.0 | 0.00 | 0.00 | 0.00 | 81 | 1014.6 |
| 20260831225032 | 55 | 0 | 0.0 | 2.0 | 0.00 | 0.00 | 0.00 | 81 | 1014.7 |
| 20260831224546 | 55 | 219 | 0.0 | 1.0 | 0.00 | 0.00 | 0.00 | 81 | 1014.5 |
| 20260831224030 | 55 | 0 | 0.0 | 1.0 | 0.00 | 0.00 | 0.00 | 82 | 1014.6 |
| 20260831223529 | 55 | 0 | 0.0 | 1.0 | 0.00 | 0.00 | 0.00 | 82 | 1014.6 |
| 20260831223055 | 55 | 0 | 0.0 | 1.0 | 0.00 | 0.00 | 0.00 | 82 | 1014.6 |
| 20260831222529 | 55 | 0 | 0.0 | 1.0 | 0.00 | 0.00 | 0.00 | 82 | 1014.6 |
| 20260831222030 | 55 | 0 | 0.0 | 1.0 | 0.00 | 0.00 | 0.00 | 82 | 1014.6 |
| 20260831221547 | 55 | 0 | 0.0 | 1.0 | 0.00 | 0.00 | 0.00 | 82 | 1014.7 |
| 20260831221030 | 54 | 0 | 0.0 | 1.0 | 0.00 | 0.00 | 0.00 | 82 | 1014.6 |
| 20260831220533 | 54 | 0 | 0.0 | 0.0 | 0.00 | 0.00 | 0.00 | 82 | 1014.6 |
| 20260831220045 | 54 | 0 | 0.0 | 1.0 | 0.00 | 0.00 | 0.00 | 82 | 1014.6 |
| 20260831215531 | 54 | 0 | 0.0 | 1.0 | 0.00 | 0.00 | 0.00 | 82 | 1014.8 |
| 20260831215032 | 54 | 0 | 0.0 | 1.0 | 0.00 | 0.00 | 0.00 | 82 | 1014.7 |
| 20260831214610 | 54 | 0 | 0.0 | 0.0 | 0.00 | 0.00 | 0.00 | 82 | 1014.8 |
| 20260831214035 | 54 | 0 | 0.0 | 0.0 | 0.00 | 0.00 | 0.00 | 81 | 1014.8 |
| 20260831213531 | 54 | 0 | 0.0 | 1.0 | 0.00 | 0.00 | 0.00 | 81 | 1014.9 |
| 20260831213058 | 54 | 0 | 0.0 | 1.0 | 0.00 | 0.00 | 0.00 | 81 | 1014.9 |
| 20260831212531 | 54 | 0 | 0.0 | 1.0 | 0.00 | 0.00 | 0.00 | 81 | 1014.8 |
| 20260831212030 | 54 | 0 | 0.0 | 1.0 | 0.00 | 0.00 | 0.00 | 81 | 1014.7 |
| 20260831211552 | 54 | 0 | 0.0 | 1.0 | 0.00 | 0.00 | 0.00 | 80 | 1014.9 |
| 20260831211029 | 54 | 0 | 0.0 | 1.0 | 0.00 | 0.00 | 0.00 | 80 | 1014.8 |
| 20260831210530 | 54 | 255 | 0.0 | 1.0 | 0.00 | 0.00 | 0.00 | 80 | 1014.6 |
| 20260831210046 | 55 | 0 | 0.0 | 1.0 | 0.00 | 0.00 | 0.00 | 79 | 1014.7 |
| 20260831205532 | 55 | 0 | 0.0 | 1.0 | 0.00 | 0.00 | 0.00 | 79 | 1014.8 |
| 20260831205032 | 55 | 254 | 0.0 | 1.0 | 0.00 | 0.00 | 0.00 | 79 | 1014.8 |
| 20260831204555 | 55 | 243 | 0.0 | 1.0 | 0.00 | 0.00 | 0.00 | 79 | 1014.7 |
| 20260831204031 | 55 | 0 | 0.0 | 1.0 | 0.00 | 0.00 | 0.00 | 79 | 1014.8 |
| 20260831203528 | 56 | 0 | 0.0 | 1.0 | 0.00 | 0.00 | 0.00 | 78 | 1014.7 |
| 20260831203053 | 56 | 0 | 0.0 | 2.0 | 0.00 | 0.00 | 0.00 | 78 | 1014.7 |
| 20260831202532 | 56 | 229 | 0.0 | 3.0 | 0.00 | 0.00 | 0.00 | 78 | 1014.8 |
| 20260831202034 | 56 | 206 | 0.0 | 3.0 | 0.00 | 0.00 | 0.00 | 78 | 1014.6 |
| 20260831201547 | 56 | 271 | 0.0 | 2.0 | 0.00 | 0.00 | 0.00 | 78 | 1014.7 |
| 20260831201034 | 56 | 264 | 0.0 | 3.0 | 0.00 | 0.00 | 0.00 | 77 | 1014.5 |
| 20260831200528 | 56 | 233 | 1.0 | 3.0 | 0.00 | 0.00 | 0.00 | 77 | 1014.5 |
| 20260831200046 | 56 | 257 | 0.0 | 3.0 | 0.00 | 0.00 | 0.00 | 77 | 1014.4 |
| 20260831195534 | 56 | 281 | 1.0 | 3.0 | 0.00 | 0.00 | 0.00 | 76 | 1014.4 |
| 20260831195033 | 56 | 286 | 1.0 | 2.0 | 0.00 | 0.00 | 0.00 | 76 | 1014.4 |
| 20260831194607 | 56 | 259 | 0.0 | 3.0 | 0.00 | 0.00 | 0.00 | 76 | 1014.4 |
| 20260831194031 | 56 | 277 | 1.0 | 3.0 | 0.00 | 0.00 | 0.00 | 75 | 1014.3 |
| 20260831193531 | 56 | 286 | 0.0 | 2.0 | 0.00 | 0.00 | 0.00 | 75 | 1014.3 |
| 20260831193047 | 56 | 266 | 0.0 | 2.0 | 0.00 | 0.00 | 0.00 | 75 | 1014.2 |
| 20260831192533 | 56 | 278 | 0.0 | 3.0 | 0.00 | 0.00 | 0.00 | 74 | 1014.1 |
| 20260831192028 | 57 | 301 | 1.0 | 3.0 | 0.00 | 0.00 | 0.00 | 74 | 1014.1 |
| 20260831191557 | 57 | 274 | 1.0 | 3.0 | 0.00 | 0.00 | 0.00 | 74 | 1014.0 |
| 20260831191031 | 57 | 262 | 1.0 | 3.0 | 0.00 | 0.00 | 0.00 | 73 | 1014.1 |
| 20260831190529 | 57 | 293 | 1.0 | 3.0 | 0.00 | 0.00 | 0.00 | 73 | 1014.0 |
| 20260831190057 | 57 | 283 | 1.0 | 4.0 | 0.00 | 0.00 | 0.00 | 72 | 1013.9 |
| 20260831185531 | 57 | 282 | 1.0 | 5.0 | 0.00 | 0.00 | 0.00 | 71 | 1013.8 |
| 20260831185032 | 57 | 291 | 2.0 | 5.0 | 0.00 | 0.00 | 0.00 | 71 | 1013.9 |
| 20260831184549 | 57 | 292 | 2.0 | 4.0 | 0.00 | 0.00 | 0.00 | 70 | 1013.7 |
| 20260831184031 | 57 | 309 | 2.0 | 4.0 | 0.00 | 0.00 | 0.00 | 70 | 1013.6 |
| 20260831183530 | 57 | 288 | 1.0 | 5.0 | 0.00 | 0.00 | 0.00 | 70 | 1013.6 |
| 20260831183055 | 57 | 295 | 1.0 | 5.0 | 0.00 | 0.00 | 0.00 | 70 | 1013.7 |
| 20260831182529 | 57 | 281 | 2.0 | 5.0 | 0.00 | 0.00 | 0.00 | 70 | 1013.6 |
| 20260831182033 | 57 | 236 | 1.0 | 4.0 | 0.00 | 0.00 | 0.00 | 70 | 1013.5 |
| 20260831181556 | 57 | 281 | 2.0 | 5.0 | 0.00 | 0.00 | 0.00 | 70 | 1013.3 |
| 20260831181031 | 58 | 286 | 2.0 | 5.0 | 0.00 | 0.00 | 0.00 | 70 | 1013.4 |
| 20260831180532 | 58 | 293 | 2.0 | 5.0 | 0.00 | 0.00 | 0.00 | 70 | 1013.2 |
| 20260831180055 | 58 | 259 | 2.0 | 6.0 | 0.00 | 0.00 | 0.00 | 70 | 1013.2 |
| 20260831175532 | 58 | 281 | 2.0 | 6.0 | 0.00 | 0.03 | 0.00 | 70 | 1013.1 |
| 20260831175031 | 58 | 281 | 2.0 | 4.0 | 0.00 | 0.03 | 0.00 | 70 | 1013.1 |
| 20260831174543 | 58 | 293 | 2.0 | 7.0 | 0.00 | 0.03 | 0.00 | 70 | 1013.2 |
| 20260831174029 | 58 | 286 | 2.0 | 7.0 | 0.00 | 0.03 | 0.00 | 70 | 1013.0 |
| 20260831173533 | 58 | 290 | 2.0 | 7.0 | 0.00 | 0.03 | 0.00 | 70 | 1013.0 |
| 20260831173057 | 58 | 298 | 2.0 | 5.0 | 0.00 | 0.03 | 0.00 | 70 | 1013.0 |
| 20260831172531 | 58 | 351 | 2.0 | 4.0 | 0.00 | 0.03 | 0.00 | 70 | 1012.8 |
| 20260831172031 | 58 | 280 | 2.0 | 4.0 | 0.00 | 0.03 | 0.00 | 70 | 1012.8 |
| 20260831171554 | 58 | 281 | 2.0 | 4.0 | 0.00 | 0.03 | 0.00 | 70 | 1012.7 |
| 20260831171031 | 58 | 326 | 1.0 | 4.0 | 0.00 | 0.03 | 0.00 | 70 | 1012.6 |
| 20260831170532 | 58 | 273 | 2.0 | 6.0 | 0.00 | 0.03 | 0.00 | 69 | 1012.5 |
| 20260831170047 | 58 | 293 | 3.0 | 6.0 | 0.00 | 0.03 | 0.00 | 68 | 1012.5 |
| 20260831165530 | 59 | 283 | 3.0 | 7.0 | 0.00 | 0.07 | 0.00 | 68 | 1012.4 |
| 20260831165031 | 59 | 289 | 2.0 | 7.0 | 0.00 | 0.07 | 0.00 | 67 | 1012.4 |
| 20260831164544 | 59 | 302 | 3.0 | 7.0 | 0.00 | 0.07 | 0.00 | 67 | 1012.3 |
| 20260831164031 | 59 | 282 | 3.0 | 6.0 | 0.00 | 0.07 | 0.00 | 67 | 1012.3 |
| 20260831163531 | 59 | 319 | 2.0 | 8.0 | 0.00 | 0.07 | 0.00 | 67 | 1012.1 |
| 20260831163053 | 59 | 293 | 4.0 | 8.0 | 0.00 | 0.07 | 0.00 | 66 | 1012.1 |
| 20260831162530 | 59 | 270 | 3.0 | 8.0 | 0.00 | 0.07 | 0.00 | 66 | 1012.2 |
| 20260831162030 | 60 | 245 | 2.0 | 8.0 | 0.00 | 0.07 | 0.00 | 67 | 1012.3 |
| 20260831161547 | 60 | 281 | 4.0 | 8.0 | 0.00 | 0.07 | 0.00 | 67 | 1012.2 |
| 20260831161030 | 60 | 299 | 3.0 | 8.0 | 0.00 | 0.07 | 0.00 | 69 | 1012.1 |
| 20260831160530 | 60 | 295 | 2.0 | 7.0 | 0.00 | 0.07 | 0.00 | 70 | 1012.1 |
| 20260831160056 | 60 | 281 | 3.0 | 7.0 | 0.00 | 0.07 | 0.00 | 70 | 1012.1 |
| 20260831155532 | 60 | 245 | 1.0 | 6.0 | 0.00 | 0.07 | 0.00 | 71 | 1012.0 |
| 20260831155032 | 60 | 276 | 3.0 | 8.0 | 0.00 | 0.07 | 0.00 | 70 | 1012.2 |
| 20260831154617 | 60 | 300 | 3.0 | 8.0 | 0.00 | 0.07 | 0.00 | 69 | 1011.9 |
| 20260831154032 | 61 | 296 | 3.0 | 8.0 | 0.00 | 0.07 | 0.00 | 69 | 1011.9 |
| 20260831153532 | 61 | 293 | 3.0 | 8.0 | 0.00 | 0.07 | 0.00 | 69 | 1011.7 |
| 20260831153052 | 61 | 266 | 3.0 | 8.0 | 0.00 | 0.07 | 0.00 | 69 | 1011.5 |
| 20260831152531 | 61 | 302 | 4.0 | 8.0 | 0.00 | 0.07 | 0.00 | 69 | 1011.4 |
| 20260831152030 | 60 | 278 | 3.0 | 7.0 | 0.00 | 0.07 | 0.00 | 71 | 1011.5 |
| 20260831151546 | 60 | 264 | 3.0 | 8.0 | 0.00 | 0.07 | 0.00 | 71 | 1011.5 |
| 20260831151030 | 60 | 276 | 3.0 | 8.0 | 0.00 | 0.07 | 0.00 | 70 | 1011.5 |
| 20260831150532 | 60 | 300 | 3.0 | 9.0 | 0.00 | 0.07 | 0.00 | 71 | 1011.3 |
| 20260831150055 | 60 | 286 | 4.0 | 9.0 | 0.00 | 0.07 | 0.00 | 71 | 1011.4 |
| 20260831145532 | 60 | 264 | 4.0 | 9.0 | 0.00 | 0.07 | 0.00 | 72 | 1011.2 |
| 20260831145031 | 60 | 284 | 3.0 | 6.0 | 0.00 | 0.07 | 0.00 | 72 | 1011.1 |
| 20260831144600 | 60 | 285 | 2.0 | 7.0 | 0.00 | 0.07 | 0.00 | 72 | 1011.1 |
| 20260831144031 | 60 | 278 | 3.0 | 7.0 | 0.00 | 0.07 | 0.00 | 72 | 1011.0 |
| 20260831143531 | 60 | 285 | 3.0 | 6.0 | 0.00 | 0.07 | 0.00 | 72 | 1011.0 |
| 20260831143055 | 60 | 276 | 3.0 | 6.0 | 0.00 | 0.07 | 0.00 | 72 | 1011.0 |
| 20260831142531 | 60 | 282 | 3.0 | 6.0 | 0.00 | 0.07 | 0.00 | 72 | 1010.9 |
| 20260831142030 | 60 | 284 | 2.0 | 6.0 | 0.00 | 0.07 | 0.00 | 73 | 1010.8 |
| 20260831141546 | 61 | 279 | 2.0 | 6.0 | 0.00 | 0.07 | 0.00 | 73 | 1010.8 |
| 20260831141031 | 61 | 345 | 2.0 | 5.0 | 0.00 | 0.07 | 0.00 | 73 | 1010.6 |
| 20260831140533 | 61 | 271 | 2.0 | 5.0 | 0.00 | 0.07 | 0.00 | 72 | 1010.5 |
| 20260831140055 | 61 | 300 | 2.0 | 5.0 | 0.00 | 0.07 | 0.00 | 72 | 1010.5 |
| 20260831135529 | 61 | 271 | 2.0 | 5.0 | 0.00 | 0.07 | 0.00 | 72 | 1010.5 |
| 20260831135029 | 61 | 285 | 2.0 | 7.0 | 0.00 | 0.07 | 0.00 | 72 | 1010.2 |
| 20260831134555 | 61 | 274 | 2.0 | 7.0 | 0.00 | 0.07 | 0.00 | 72 | 1010.3 |
| 20260831134030 | 62 | 326 | 2.0 | 7.0 | 0.00 | 0.07 | 0.00 | 72 | 1010.2 |
| 20260831133528 | 61 | 259 | 4.0 | 9.0 | 0.00 | 0.07 | 0.00 | 72 | 1010.2 |
| 20260831133051 | 61 | 288 | 5.0 | 9.0 | 0.00 | 0.07 | 0.00 | 72 | 1010.1 |
| 20260831132532 | 61 | 296 | 3.0 | 7.0 | 0.00 | 0.07 | 0.00 | 72 | 1010.0 |
| 20260831132035 | 61 | 252 | 3.0 | 10.0 | 0.00 | 0.07 | 0.00 | 73 | 1010.1 |
| 20260831131551 | 61 | 293 | 3.0 | 10.0 | 0.00 | 0.07 | 0.00 | 73 | 1010.1 |
| 20260831131033 | 61 | 288 | 5.0 | 8.0 | 0.00 | 0.07 | 0.00 | 73 | 1010.1 |
| 20260831130532 | 62 | 293 | 4.0 | 9.0 | 0.00 | 0.07 | 0.00 | 73 | 1010.0 |
| 20260831130110 | 62 | 292 | 4.0 | 9.0 | 0.00 | 0.07 | 0.00 | 74 | 1009.9 |
| 20260831125531 | 62 | 223 | 2.0 | 6.0 | 0.00 | 0.07 | 0.00 | 75 | 1009.9 |
| 20260831125033 | 61 | 310 | 2.0 | 5.0 | 0.00 | 0.07 | 0.00 | 74 | 1009.8 |
| 20260831124551 | 61 | 272 | 3.0 | 8.0 | 0.00 | 0.07 | 0.00 | 75 | 1010.0 |
| 20260831124031 | 61 | 269 | 3.0 | 8.0 | 0.00 | 0.07 | 0.00 | 75 | 1009.8 |
| 20260831123530 | 62 | 276 | 3.0 | 8.0 | 0.00 | 0.07 | 0.00 | 75 | 1009.7 |
| 20260831123048 | 62 | 279 | 2.0 | 8.0 | 0.00 | 0.07 | 0.00 | 76 | 1009.6 |
| 20260831122531 | 62 | 12 | 2.0 | 8.0 | 0.00 | 0.07 | 0.00 | 76 | 1009.6 |
| 20260831122032 | 61 | 278 | 3.0 | 8.0 | 0.00 | 0.07 | 0.00 | 75 | 1009.5 |
| 20260831121544 | 62 | 309 | 3.0 | 8.0 | 0.00 | 0.07 | 0.00 | 75 | 1009.3 |
| 20260831121032 | 63 | 346 | 2.0 | 5.0 | 0.00 | 0.07 | 0.00 | 76 | 1009.3 |
| 20260831120532 | 63 | 301 | 2.0 | 5.0 | 0.00 | 0.07 | 0.00 | 76 | 1009.2 |
| 20260831120108 | 63 | 306 | 3.0 | 5.0 | 0.00 | 0.07 | 0.00 | 77 | 1009.1 |
| 20260831115532 | 62 | 244 | 2.0 | 4.0 | 0.00 | 0.07 | 0.00 | 78 | 1009.1 |
| 20260831115032 | 61 | 274 | 2.0 | 4.0 | 0.00 | 0.07 | 0.00 | 79 | 1008.9 |
| 20260831114553 | 61 | 245 | 1.0 | 3.0 | 0.00 | 0.07 | 0.00 | 79 | 1008.8 |
| 20260831114033 | 61 | 285 | 1.0 | 8.0 | 0.00 | 0.07 | 0.00 | 79 | 1008.8 |
| 20260831113532 | 61 | 250 | 2.0 | 8.0 | 0.00 | 0.07 | 0.00 | 78 | 1008.8 |
| 20260831113047 | 62 | 281 | 4.0 | 8.0 | 0.00 | 0.07 | 0.00 | 75 | 1008.8 |
| 20260831112531 | 64 | 294 | 2.0 | 5.0 | 0.00 | 0.07 | 0.00 | 76 | 1008.7 |
| 20260831112034 | 64 | 304 | 1.0 | 5.0 | 0.00 | 0.07 | 0.00 | 77 | 1008.6 |
| 20260831111544 | 63 | 273 | 2.0 | 4.0 | 0.00 | 0.07 | 0.00 | 77 | 1008.5 |
| 20260831111031 | 63 | 271 | 2.0 | 4.0 | 0.00 | 0.07 | 0.00 | 77 | 1008.3 |
| 20260831110531 | 63 | 262 | 2.0 | 4.0 | 0.00 | 0.07 | 0.00 | 78 | 1008.4 |
| 20260831110100 | 63 | 302 | 2.0 | 4.0 | 0.00 | 0.07 | 0.00 | 79 | 1008.4 |
| 20260831105532 | 63 | 286 | 1.0 | 4.0 | 0.00 | 0.08 | 0.00 | 78 | 1008.2 |
| 20260831105031 | 63 | 297 | 2.0 | 4.0 | 0.00 | 0.08 | 0.00 | 79 | 1008.2 |
| 20260831104551 | 63 | 276 | 2.0 | 5.0 | 0.00 | 0.08 | 0.00 | 79 | 1008.1 |
| 20260831104032 | 63 | 252 | 2.0 | 5.0 | 0.00 | 0.08 | 0.00 | 80 | 1008.1 |
| 20260831103532 | 62 | 284 | 2.0 | 3.0 | 0.00 | 0.08 | 0.00 | 81 | 1008.2 |
| 20260831103048 | 61 | 284 | 1.0 | 4.0 | 0.00 | 0.08 | 0.00 | 81 | 1008.0 |
| 20260831102533 | 61 | 311 | 2.0 | 4.0 | 0.00 | 0.08 | 0.00 | 82 | 1008.0 |
| 20260831102032 | 61 | 311 | 2.0 | 5.0 | 0.00 | 0.08 | 0.00 | 82 | 1007.9 |
| 20260831101547 | 61 | 291 | 2.0 | 5.0 | 0.00 | 0.08 | 0.00 | 83 | 1008.0 |
| 20260831101034 | 61 | 291 | 1.0 | 4.0 | 0.00 | 0.08 | 0.00 | 84 | 1008.1 |
| 20260831100528 | 60 | 258 | 2.0 | 4.0 | 0.00 | 0.08 | 0.00 | 84 | 1007.9 |
| 20260831100043 | 60 | 281 | 1.0 | 3.0 | 0.00 | 0.08 | 0.00 | 85 | 1007.9 |
| 20260831095528 | 60 | 288 | 1.0 | 2.0 | 0.00 | 0.08 | 0.00 | 85 | 1007.9 |
| 20260831095032 | 60 | 310 | 1.0 | 2.0 | 0.00 | 0.08 | 0.00 | 85 | 1007.9 |
| 20260831094548 | 59 | 266 | 1.0 | 2.0 | 0.00 | 0.08 | 0.00 | 85 | 1007.8 |
| 20260831094031 | 59 | 268 | 0.0 | 2.0 | 0.00 | 0.08 | 0.00 | 85 | 1007.8 |
| 20260831093529 | 59 | 272 | 0.0 | 4.0 | 0.00 | 0.08 | 0.00 | 85 | 1007.6 |
| 20260831093048 | 59 | 268 | 1.0 | 4.0 | 0.00 | 0.08 | 0.00 | 84 | 1007.6 |
| 20260831092528 | 59 | 281 | 2.0 | 6.0 | 0.00 | 0.08 | 0.00 | 83 | 1007.5 |
| 20260831092027 | 60 | 288 | 3.0 | 6.0 | 0.00 | 0.08 | 0.00 | 83 | 1007.4 |
| 20260831091554 | 61 | 292 | 3.0 | 4.0 | 0.00 | 0.08 | 0.00 | 82 | 1007.3 |
| 20260831091028 | 61 | 297 | 1.0 | 4.0 | 0.00 | 0.08 | 0.00 | 83 | 1007.1 |
| 20260831090528 | 61 | 295 | 1.0 | 4.0 | 0.00 | 0.08 | 0.00 | 83 | 1007.1 |
| 20260831090048 | 60 | 304 | 2.0 | 4.0 | 0.00 | 0.08 | 0.00 | 83 | 1007.0 |
| 20260831085528 | 61 | 283 | 1.0 | 5.0 | 0.00 | 0.08 | 0.00 | 83 | 1006.9 |
| 20260831085027 | 61 | 297 | 1.0 | 5.0 | 0.00 | 0.08 | 0.00 | 84 | 1006.9 |
| 20260831084544 | 61 | 283 | 2.0 | 5.0 | 0.00 | 0.08 | 0.00 | 84 | 1006.8 |
| 20260831084028 | 61 | 290 | 2.0 | 4.0 | 0.00 | 0.08 | 0.00 | 85 | 1006.8 |
| 20260831083527 | 60 | 286 | 1.0 | 4.0 | 0.00 | 0.08 | 0.00 | 86 | 1006.7 |
| 20260831083053 | 60 | 291 | 1.0 | 4.0 | 0.00 | 0.08 | 0.00 | 86 | 1006.8 |
| 20260831082528 | 59 | 246 | 1.0 | 3.0 | 0.00 | 0.08 | 0.00 | 87 | 1006.6 |
| 20260831082029 | 59 | 257 | 1.0 | 3.0 | 0.00 | 0.08 | 0.00 | 87 | 1006.5 |
| 20260831081547 | 59 | 278 | 0.0 | 3.0 | 0.00 | 0.08 | 0.00 | 87 | 1006.6 |
| 20260831081029 | 59 | 275 | 0.0 | 3.0 | 0.00 | 0.08 | 0.00 | 87 | 1006.4 |
| 20260831080531 | 58 | 238 | 0.0 | 3.0 | 0.00 | 0.08 | 0.00 | 88 | 1006.4 |
| 20260831080046 | 58 | 265 | 0.0 | 3.0 | 0.00 | 0.08 | 0.00 | 88 | 1006.4 |
| 20260831075528 | 58 | 293 | 1.0 | 3.0 | 0.00 | 0.10 | 0.00 | 88 | 1006.4 |
| 20260831075027 | 58 | 280 | 0.0 | 2.0 | 0.00 | 0.10 | 0.00 | 89 | 1006.4 |
| 20260831074552 | 58 | 270 | 0.0 | 2.0 | 0.00 | 0.10 | 0.00 | 89 | 1006.2 |
| 20260831074030 | 58 | 272 | 0.0 | 2.0 | 0.00 | 0.10 | 0.00 | 89 | 1006.2 |
| 20260831073530 | 58 | 274 | 0.0 | 1.0 | 0.00 | 0.10 | 0.00 | 89 | 1006.3 |
| 20260831073050 | 58 | 0 | 0.0 | 1.0 | 0.00 | 0.10 | 0.00 | 89 | 1006.2 |
| 20260831072530 | 58 | 0 | 0.0 | 1.0 | 0.00 | 0.10 | 0.00 | 89 | 1006.0 |